Wind_Speed
15 15 15 18 20 19 17 16 16 16 15 16 16 15 15 15 16 17 18 18 20 21 23 25 26 28 29 30 31 33 34 34 35 35 34 33 32 31 29 27 25 24 24 25 25 26 27 28 28 28 28 27 27 28 29 30 28 27 26 25 24 23 23 22 22 22 23 24 25 25 26 26 26 26 26 26 26 26 26 27 27 28 27 27 28 28
18 17 19 22 22 21 19 19 18 18 18 17 17 17 17 17 18 19 20 21 21 21 22 22 22 23 24 25 26 29 32 34 36 36 35 34 33 31 29 27 25 24 24 23 23 24 25 26 27 27 27 26 27 29 30 31 29 28 28 27 25 25 24 23 23 23 23 24 24 25 25 25 25 26 26 26 26 26 26 27 27 28 27 27 28 28
20 21 24 25 24 23 22 21 21 21 20 19 19 19 19 20 21 22 23 24 24 23 23 23 22 22 22 21 22 25 29 32 34 34 35 34 32 29 28 27 27 25 24 23 21 22 23 24 25 25 25 26 27 29 31 32 31 29 29 28 27 26 25 23 23 23 23 23 23 24 24 24 24 25 25 25 26 26 26 27 27 27 27 27 27 28
20 23 26 26 25 26 25 24 24 23 22 21 21 21 21 22 23 25 26 26 26 25 25 25 24 24 24 21 21 24 27 30 32 32 33 33 31 29 27 27 27 26 25 23 22 22 22 22 23 24 24 26 26 28 32 32 31 30 29 28 27 26 24 23 23 23 22 22 22 23 23 23 23 24 24 25 25 25 26 26 26 26 26 26 27 27
20 23 24 24 25 25 25 25 25 24 24 23 23 23 24 25 26 27 28 29 28 28 27 26 25 25 25 25 24 24 26 29 31 32 32 33 32 30 30 29 28 26 25 25 24 22 21 22 23 23 24 25 25 28 32 32 31 30 28 28 27 26 24 24 24 23 22 21 21 21 21 22 22 23 24 24 25 25 25 25 25 25 25 25 26 26
21 23 23 24 24 23 23 23 23 23 23 23 23 23 25 26 28 28 29 29 29 29 28 27 26 26 25 26 26 25 26 28 30 32 32 33 33 32 32 31 28 25 25 25 24 23 23 23 24 24 24 25 26 29 33 32 31 30 29 28 27 26 25 25 24 23 22 21 20 20 20 21 22 22 23 24 24 24 24 24 24 24 24 24 25 25
22 24 24 24 24 23 22 21 21 22 22 22 22 23 24 25 27 28 28 29 28 29 29 28 27 27 25 25 27 27 27 28 30 32 33 33 33 33 32 30 28 25 24 25 25 25 24 24 24 24 25 26 27 31 33 31 30 30 30 29 28 26 26 25 24 23 22 21 20 20 20 21 21 22 22 23 23 24 24 24 24 24 24 24 24 24
21 23 25 25 24 23 22 21 22 22 21 21 22 23 24 25 26 27 28 29 29 29 29 28 28 29 26 25 27 29 29 30 31 32 32 32 32 32 31 30 29 28 27 26 26 26 25 24 25 25 26 28 28 31 33 31 29 29 29 29 27 26 25 25 24 23 22 21 20 21 21 21 21 22 22 22 22 23 23 23 24 24 24 24 24 23
18 20 22 23 22 22 22 22 23 23 22 22 23 23 24 25 26 27 28 29 30 30 29 29 29 30 29 26 27 29 30 31 32 32 32 32 32 33 33 32 31 30 28 27 27 27 26 26 26 28 30 30 30 31 31 29 28 28 28 27 26 24 23 23 23 22 22 20 20 21 21 21 22 22 22 22 22 22 22 23 23 23 23 23 23 22
17 18 18 18 18 19 21 22 22 23 23 23 24 24 25 26 27 28 28 29 30 30 28 28 29 30 30 28 27 29 31 31 32 33 33 33 34 35 35 34 33 31 29 28 27 26 26 28 30 31 31 29 28 29 28 27 27 27 27 26 24 23 22 22 22 21 21 20 20 20 21 21 21 22 21 21 21 21 22 22 22 22 22 22 22 21
17 18 18 17 16 17 19 20 21 22 23 24 24 25 26 27 27 27 28 28 29 29 27 28 29 31 31 29 27 28 30 30 32 33 34 35 36 37 37 36 36 33 31 29 29 28 29 30 29 27 26 24 23 24 24 26 28 28 27 26 24 22 21 21 21 20 20 20 20 20 20 21 21 21 21 20 20 20 21 21 21 22 22 22 21 20
18 19 19 19 18 18 18 19 20 22 23 24 24 25 25 26 25 25 25 25 26 26 25 25 27 28 29 28 26 26 26 27 29 31 34 36 37 37 37 36 36 34 32 31 29 28 28 26 21 19 18 18 19 21 23 26 28 28 28 27 25 23 21 20 20 20 20 20 20 19 19 20 20 20 20 19 19 19 19 20 20 21 21 21 20 20
18 18 19 19 19 19 19 19 20 20 22 23 23 23 23 24 24 23 23 23 23 23 23 23 24 25 25 25 24 22 22 22 24 26 29 32 34 35 35 36 35 33 30 27 24 22 22 19 15 14 15 17 19 22 24 27 28 28 28 28 27 25 23 21 21 21 21 20 20 19 19 20 20 19 19 19 18 18 18 18 19 20 20 20 20 19
15 15 17 18 18 19 19 19 19 19 21 22 22 23 23 23 24 23 23 23 22 22 23 23 23 24 23 23 23 21 20 19 20 22 23 25 26 28 30 30 29 27 23 19 17 16 17 15 13 13 15 18 21 23 25 26 27 28 28 29 29 28 26 23 22 21 22 22 21 21 20 20 21 20 20 19 18 17 17 17 18 18 19 19 19 19
11 12 14 16 16 17 18 19 19 20 21 22 22 23 23 23 23 24 24 24 24 24 24 24 24 24 23 22 21 20 18 17 17 19 20 21 21 21 22 23 22 20 18 15 13 13 15 14 14 15 17 20 23 25 26 27 28 28 29 30 30 29 27 25 23 22 23 23 24 24 23 22 22 22 22 21 20 19 18 18 18 17 18 18 18 18
12 12 13 14 15 15 16 18 20 21 20 21 23 24 23 23 23 24 25 25 25 26 25 24 24 24 23 22 21 20 18 16 16 18 19 20 20 19 20 20 19 18 16 13 11 12 16 17 18 19 20 21 24 26 27 28 29 29 31 31 30 28 27 26 25 24 24 25 26 26 26 25 24 24 24 23 22 21 21 20 19 19 19 18 18 18
16 14 13 14 16 15 15 17 19 20 20 21 23 23 22 23 24 24 25 26 27 27 28 26 24 24 23 23 22 20 19 18 17 18 19 19 19 19 20 20 20 19 16 14 13 16 20 22 23 23 23 24 26 27 27 27 28 29 31 32 31 29 28 28 28 26 25 25 26 27 26 25 24 24 23 23 22 22 22 22 21 21 21 20 20 19
20 19 17 16 17 17 17 18 19 20 21 21 22 22 22 23 24 24 25 27 28 28 29 28 26 25 24 23 22 20 19 18 18 18 19 19 19 19 19 19 20 19 18 16 16 19 24 27 27 26 25 25 27 28 29 29 28 27 28 29 29 28 27 28 29 27 25 25 25 25 24 23 23 23 23 23 22 21 22 22 22 22 22 22 21 21
24 23 22 20 19 20 20 20 20 22 23 22 23 23 24 24 25 26 26 27 28 29 29 29 28 28 26 25 23 21 21 20 20 20 21 21 21 21 20 18 18 17 17 17 17 19 23 26 27 28 27 27 28 29 30 31 28 25 24 25 25 24 25 27 29 28 27 26 25 23 22 22 22 23 22 22 21 21 21 22 22 22 23 22 22 22
27 27 26 25 23 23 23 22 22 23 25 25 26 26 27 27 27 28 28 28 29 29 30 30 30 29 27 26 25 24 23 23 22 22 22 23 23 23 22 20 18 18 18 18 19 19 21 23 26 27 28 28 29 28 28 29 28 25 25 26 25 23 24 27 28 28 28 28 26 24 22 21 21 21 21 21 21 21 21 22 21 21 21 21 21 22
30 31 30 29 28 27 27 26 26 26 26 27 28 29 30 30 30 30 31 31 30 31 32 32 32 30 27 26 27 27 27 26 25 25 24 24 24 24 23 22 21 21 21 21 22 22 23 24 26 28 28 29 29 28 28 28 28 27 27 27 27 26 25 26 26 27 28 28 27 26 24 23 22 22 22 23 23 23 23 22 21 21 20 19 19 20
33 33 33 32 31 30 30 30 29 29 29 29 30 30 31 32 32 32 33 33 32 33 34 35 35 33 30 29 29 29 30 30 29 28 27 27 26 27 27 26 26 26 27 27 26 26 26 27 27 29 30 31 31 30 30 30 30 30 30 30 30 29 28 26 27 29 30 29 29 28 26 25 24 24 24 24 25 25 25 24 23 22 21 20 20 19
36 36 36 35 34 33 33 33 33 32 32 32 32 33 33 33 34 34 34 35 35 36 37 38 39 38 35 32 32 33 34 34 34 33 32 32 32 32 32 32 32 31 32 32 30 28 28 29 29 29 30 31 31 31 32 32 33 33 33 33 33 33 31 29 30 32 32 31 31 31 29 28 28 28 27 26 26 26 27 27 26 24 23 22 22 22
37 38 38 38 37 36 36 35 35 35 35 35 35 35 35 36 36 37 37 38 38 39 39 40 42 42 40 36 35 36 36 37 38 39 39 38 37 37 37 37 37 36 35 35 34 32 31 31 32 32 31 31 31 32 32 33 34 35 35 35 34 35 35 32 31 32 32 32 32 32 31 30 30 30 29 27 26 27 28 28 28 27 25 24 24 24
38 38 39 40 40 39 38 38 38 37 37 37 37 37 37 38 39 40 40 40 41 42 42 42 44 45 43 41 40 40 40 41 42 43 43 43 42 42 41 41 40 38 37 37 37 36 35 34 33 34 34 33 33 34 34 35 36 36 36 37 37 36 35 34 33 33 33 33 33 33 32 32 32 31 30 29 28 28 28 29 29 29 29 28 28 28
38 39 40 40 40 40 39 39 38 38 39 39 39 39 39 39 40 41 41 42 43 44 43 44 45 45 46 46 45 45 44 45 46 47 47 47 46 46 45 44 43 41 40 39 39 39 38 37 36 36 36 36 36 36 36 37 38 38 39 39 38 37 35 35 35 35 35 35 35 35 34 34 36 35 34 33 32 31 31 31 31 31 30 30 31 32
39 39 39 40 40 40 40 38 38 38 38 38 39 39 40 40 41 41 42 43 43 44 44 44 44 45 46 48 48 48 48 49 50 51 51 50 49 49 49 48 46 45 43 42 41 41 41 40 39 39 39 38 38 38 38 39 39 40 40 40 38 37 38 38 37 38 38 38 38 38 37 37 38 39 38 37 35 35 34 34 34 33 33 33 34 35
39 39 39 39 39 39 39 38 37 37 36 36 37 39 40 40 41 42 42 42 43 44 44 43 43 43 45 47 47 48 49 50 51 51 51 51 51 50 49 48 47 46 45 44 42 41 42 42 41 41 41 41 41 40 40 41 41 42 42 42 42 41 42 41 40 40 41 41 41 41 40 39 39 40 39 39 37 37 36 36 35 35 36 36 37 38
38 38 38 38 38 39 39 39 38 38 37 37 38 38 39 40 41 42 42 42 43 43 43 43 43 43 44 45 46 47 48 49 49 49 49 49 48 48 47 47 47 45 44 43 42 41 42 43 43 43 43 43 43 42 42 42 43 44 44 45 46 46 46 45 44 43 44 44 43 42 42 41 41 41 40 40 40 40 39 39 39 38 38 39 40 41
38 38 38 38 39 39 39 40 40 40 40 40 40 40 40 40 40 41 41 40 41 42 42 43 44 43 43 44 45 45 47 48 49 49 48 48 47 47 46 46 46 45 45 44 43 42 42 42 42 43 43 43 43 43 44 44 44 45 46 46 47 48 48 48 47 47 47 47 46 45 43 42 42 42 42 42 42 42 42 42 42 42 42 42 44 45
38 39 40 40 40 40 40 41 42 42 43 44 43 43 42 41 40 40 40 40 41 42 41 42 44 44 43 43 44 45 47 48 49 49 49 49 48 48 48 47 47 47 47 47 47 46 46 45 45 45 45 45 45 45 45 46 46 47 47 47 48 48 49 49 49 49 49 50 49 48 47 46 45 44 44 45 45 45 45 45 45 46 46 46 47 48
40 41 42 42 43 43 42 43 44 45 46 47 46 45 42 41 41 41 40 41 42 42 42 43 45 45 42 42 44 46 47 47 48 48 49 49 49 49 49 49 49 49 49 49 50 51 51 51 52 53 53 52 52 52 51 51 51 51 51 51 50 50 50 51 51 51 51 52 52 52 52 51 50 50 49 49 50 50 50 49 49 49 49 50 50 50
42 43 43 44 45 44 44 44 45 46 48 48 46 44 42 42 43 42 41 41 41 42 43 45 46 44 43 44 45 45 45 46 47 47 48 48 49 49 50 50 50 50 50 50 50 51 52 53 54 56 56 56 56 56 55 55 54 54 53 53 52 52 52 52 52 53 53 54 54 55 55 54 54 53 53 53 53 53 53 52 52 52 52 52 52 53
41 42 43 44 45 44 44 45 46 48 48 47 44 43 43 43 43 42 41 40 40 41 43 43 43 43 43 44 44 44 45 45 46 47 47 47 48 49 49 49 49 49 50 50 50 50 51 51 52 53 54 55 55 55 55 55 55 54 54 53 53 53 53 53 53 53 54 54 54 55 55 55 54 54 54 53 53 53 53 53 53 53 53 54 54 54
41 41 41 42 43 43 44 45 47 48 47 44 44 44 43 42 41 41 40 40 40 41 41 41 42 42 42 43 43 44 45 45 46 46 46 47 48 49 49 49 49 49 49 49 50 50 50 50 50 51 51 52 52 53 53 54 54 53 53 53 53 54 54 53 53 53 53 53 54 54 54 54 53 53 53 53 53 52 52 52 52 53 53 53 54 54
41 41 41 41 42 43 43 44 46 47 45 44 44 43 42 41 41 41 41 41 41 41 41 42 42 42 42 42 42 43 44 45 45 46 46 46 47 47 48 48 48 48 48 49 49 50 50 49 49 49 49 50 50 51 51 52 52 52 52 53 53 53 53 53 52 52 53 53 53 53 53 53 53 53 53 53 53 53 53 53 53 53 53 53 53 54
42 42 42 42 42 42 43 44 45 45 45 44 43 42 41 41 41 40 41 41 41 41 41 41 41 41 41 41 41 41 41 42 43 44 45 45 46 46 46 47 47 47 48 48 49 49 49 49 48 48 48 48 49 49 50 50 50 50 50 51 51 52 52 52 52 52 52 52 52 53 53 53 53 52 52 53 53 53 54 54 54 54 54 54 54 54
42 42 42 42 42 41 41 42 43 43 43 42 41 41 41 40 40 40 41 41 41 41 41 41 41 41 41 41 41 41 40 40 41 43 43 44 45 46 46 47 47 47 47 48 48 48 49 49 49 48 48 48 48 49 49 49 49 49 49 49 50 50 51 51 51 52 52 52 52 52 53 53 53 52 52 52 52 53 53 53 53 54 54 54 54 54
41 41 41 41 41 40 40 41 41 41 41 40 40 40 40 39 39 40 41 42 41 40 40 41 40 40 40 40 40 40 40 40 41 42 43 43 44 45 46 47 47 47 47 47 47 48 48 49 49 49 49 49 48 49 49 49 48 48 48 49 49 50 50 51 51 52 52 52 52 52 52 52 52 52 51 51 51 51 52 52 52 52 53 53 54 54
40 40 41 41 41 40 40 40 40 39 39 39 39 39 39 39 39 40 41 42 41 41 41 41 40 40 39 39 39 39 39 39 40 41 42 42 44 45 46 46 47 47 47 48 48 48 48 49 49 49 49 49 48 48 48 48 48 48 48 49 49 49 50 50 51 51 52 52 52 52 52 52 51 51 51 50 50 50 51 51 51 51 51 52 52 53
38 39 40 40 40 40 40 40 39 39 38 38 38 39 39 39 39 40 41 42 41 41 42 42 41 41 40 39 39 39 39 40 40 40 40 41 42 44 44 45 46 46 47 47 48 48 49 49 49 49 48 48 48 48 48 48 48 48 48 48 49 49 50 50 50 51 52 52 51 51 51 51 52 51 51 51 51 50 51 51 51 51 51 51 52 52
36 37 37 38 38 39 39 39 38 38 37 37 37 38 39 39 40 40 40 41 41 41 41 42 42 41 41 41 41 41 41 41 42 42 42 42 43 44 44 45 45 46 46 47 47 48 48 48 47 47 47 47 48 48 47 47 47 46 47 47 47 48 48 48 48 49 50 50 51 51 51 52 52 52 52 53 52 51 51 52 52 52 52 52 52 52
35 35 35 35 36 37 37 38 38 37 37 37 38 39 39 40 40 40 40 40 41 41 41 42 42 43 43 42 42 42 42 42 43 44 44 45 45 46 47 48 48 49 49 49 48 48 47 47 46 46 46 46 47 47 47 46 46 46 45 45 45 45 45 46 46 47 47 48 49 49 50 50 51 52 53 53 53 52 52 53 54 54 54 54 54 53
34 34 34 34 34 35 36 37 37 38 38 39 40 40 40 40 41 41 41 41 42 42 43 43 43 44 44 44 43 43 43 44 44 45 46 46 47 47 48 49 49 50 50 50 50 49 49 48 48 47 47 47 48 48 47 47 46 45 45 44 44 45 46 46 46 46 46 47 48 48 49 50 51 51 52 53 53 53 54 54 55 54 54 53 51 49
34 34 34 34 34 35 35 36 37 38 39 41 42 42 41 41 42 42 42 43 43 44 44 44 45 45 45 45 45 44 44 45 45 46 46 47 47 48 50 50 50 50 51 51 51 51 52 52 51 51 51 51 51 51 50 49 48 46 46 46 47 47 47 46 46 47 48 48 48 48 49 50 51 52 53 53 54 53 53 53 52 50 48 47 45 43
35 35 36 36 36 36 36 36 37 38 39 41 42 43 43 43 44 44 45 45 46 46 46 46 46 46 47 48 48 48 48 49 48 48 48 48 48 49 51 52 52 53 53 53 53 54 54 54 54 54 54 55 55 55 53 52 51 49 48 48 49 49 48 47 48 49 50 51 50 50 50 51 51 50 50 50 48 47 45 44 41 39 38 37 37 37
36 36 37 37 38 38 38 37 37 38 40 41 42 43 44 45 45 46 47 47 48 48 48 48 49 49 49 50 51 51 51 52 52 52 52 52 52 52 53 54 55 55 55 56 56 56 56 56 56 56 57 57 57 57 55 54 53 52 51 51 51 51 50 50 50 51 51 50 49 48 47 45 43 41 40 38 36 35 33 31 30 30 30 30 31 34
37 37 38 39 39 39 39 38 39 40 41 42 43 44 44 45 46 47 48 49 49 49 50 50 51 51 52 52 53 53 53 53 54 54 54 55 55 55 56 56 57 57 58 58 59 59 59 59 59 59 59 59 59 58 57 56 55 54 53 53 52 51 50 47 45 44 43 42 40 38 36 33 31 30 30 28 28 29 29 29 29 30 30 30 30 31
38 39 40 40 40 40 39 40 41 42 42 42 43 44 45 46 46 47 48 48 49 49 50 50 51 51 52 52 52 52 53 53 53 54 54 54 54 54 55 55 56 57 57 58 58 58 58 58 58 58 58 57 57 56 55 53 52 51 50 49 46 42 38 34 32 32 33 32 30 29 27 26 26 28 28 28 29 30 31 31 31 31 30 29 28 28
39 40 42 42 41 41 40 42 43 44 44 42 41 42 44 46 46 46 46 46 47 47 48 49 49 49 49 49 50 51 51 51 51 51 51 51 50 49 50 51 51 52 52 52 52 52 52 52 52 51 50 50 49 48 45 44 43 40 37 33 29 25 23 23 25 27 26 24 23 23 23 24 27 29 30 30 29 29 29 28 27 27 27 26 25 26
41 42 43 44 43 42 42 43 44 45 45 43 41 40 41 43 45 46 46 45 44 44 45 46 47 46 45 45 46 48 49 48 47 46 45 44 43 43 43 44 44 44 43 43 43 42 42 41 41 40 39 38 37 34 32 31 28 24 21 19 18 16 16 18 19 19 19 17 17 18 18 20 23 26 26 26 25 24 24 23 23 24 23 22 23 25
Wind_Direction
254 251 252 251 251 249 246 241 238 234 232 231 230 231 231 232 236 240 241 242 242 242 243 245 248 250 250 248 246 247 249 252 256 259 261 263 264 263 262 261 261 261 260 260 258 256 256 257 257 259 262 265 267 268 268 268 269 269 269 268 266 265 265 264 262 259 258 257 257 257 257 258 258 259 259 259 259 259 259 259 260 262 263 263 263 264
260 255 253 252 254 255 254 251 248 244 241 239 238 239 240 240 241 244 246 247 246 246 248 250 250 251 251 249 245 244 246 248 251 255 257 258 258 258 259 259 258 257 257 257 255 254 254 255 256 259 262 265 268 269 269 269 270 271 271 272 273 273 273 271 269 266 263 261 259 258 258 258 258 258 258 258 259 259 259 260 260 261 263 263 264 264
261 257 255 254 255 256 256 255 254 253 251 248 247 246 246 247 246 247 248 248 248 248 249 251 252 252 249 245 241 239 242 244 247 250 253 255 255 256 257 258 258 256 254 251 248 248 251 255 260 263 266 268 269 271 270 270 270 271 272 274 274 274 274 273 271 269 267 265 263 261 259 258 257 257 258 258 259 259 260 260 261 262 263 264 264 264
258 255 256 257 257 257 257 256 255 255 255 254 253 252 252 252 251 251 251 251 251 250 249 250 251 253 252 247 240 239 242 245 247 249 252 256 257 257 257 257 258 257 253 248 246 248 254 262 267 269 270 271 272 274 272 271 271 272 272 273 273 273 274 273 271 269 268 266 264 262 259 257 256 257 258 259 260 260 261 261 262 263 263 264 265 265
258 256 258 260 260 260 260 259 258 257 257 255 255 255 254 253 253 253 254 255 256 255 253 251 250 251 253 253 248 244 244 247 250 251 253 256 258 258 258 257 257 257 254 249 247 250 258 265 269 272 273 275 278 280 276 275 275 275 275 275 274 274 274 272 270 269 268 265 263 260 259 257 257 258 259 260 261 261 261 262 262 264 264 265 265 266
261 261 260 260 260 260 261 262 262 261 259 257 255 254 253 253 254 256 257 258 260 260 259 257 253 250 248 252 252 249 247 248 250 252 254 256 258 258 258 258 258 258 255 249 247 251 258 264 269 272 275 279 284 283 279 279 280 280 281 280 279 277 275 272 271 270 268 266 264 262 261 261 261 262 262 262 263 263 263 263 263 264 264 265 265 265
261 261 261 260 260 261 262 263 263 261 259 258 255 253 252 253 254 256 258 259 260 260 261 260 257 253 248 247 251 253 251 251 251 252 254 256 259 260 259 260 260 260 255 249 247 250 256 263 268 273 278 282 284 282 280 282 283 283 283 282 280 278 275 273 272 270 269 268 267 265 264 264 265 265 266 266 267 267 267 267 266 266 265 265 264 264
259 260 260 260 260 261 261 260 260 259 258 257 256 255 254 254 254 255 257 258 258 258 259 260 259 257 252 246 249 253 253 254 255 255 256 258 260 261 261 260 260 261 258 253 252 253 257 263 270 276 280 282 281 279 281 283 283 281 281 281 280 277 275 273 272 271 270 269 269 268 267 267 268 268 268 268 268 268 267 267 267 268 268 267 266 265
257 258 260 261 262 261 259 258 258 258 258 257 256 256 256 256 256 256 257 258 258 258 259 260 260 260 256 248 247 250 251 253 256 259 261 263 263 263 263 263 263 262 259 258 260 260 260 266 274 278 279 279 278 278 281 282 279 278 278 278 277 276 274 272 271 270 269 269 268 269 269 269 269 270 270 269 269 268 267 267 267 267 268 267 267 266
259 258 261 262 262 261 260 260 259 259 258 258 257 257 257 257 258 259 260 261 261 261 262 264 263 262 260 253 248 248 250 251 255 258 262 263 263 264 265 267 268 267 266 267 269 268 268 273 276 276 276 276 275 275 277 276 274 273 273 273 273 272 272 271 270 270 269 268 268 269 269 270 270 270 270 270 270 270 269 268 267 267 266 266 266 266
262 262 263 263 260 258 259 260 260 259 258 258 258 258 259 260 261 263 265 266 267 267 267 267 266 264 264 260 254 252 252 252 254 256 258 259 260 263 265 268 270 272 274 275 276 277 276 275 274 272 272 273 271 272 273 270 268 269 270 270 269 268 269 269 269 269 268 267 267 268 269 270 270 269 270 270 270 270 270 269 268 267 265 265 265 265
262 263 264 264 262 258 257 257 257 258 259 260 260 261 263 265 266 268 270 271 271 273 271 269 268 267 268 266 261 257 255 255 255 255 255 255 257 260 263 266 269 272 274 276 277 276 272 271 270 270 273 274 271 270 267 264 266 269 270 270 268 266 266 266 267 267 266 266 265 266 268 269 269 268 268 268 267 267 268 268 268 268 267 266 265 265
268 267 265 264 263 261 258 255 256 257 259 261 263 264 266 267 268 269 271 271 272 273 272 270 269 269 269 269 266 262 258 255 255 255 254 255 257 260 262 265 268 271 273 274 271 267 266 268 270 271 271 269 266 265 263 263 266 269 270 271 269 267 266 264 265 266 266 266 265 264 265 267 269 269 268 267 266 266 266 267 268 268 269 268 267 266
271 270 266 263 261 261 260 258 257 257 258 259 262 264 265 266 268 269 269 269 269 268 268 269 269 269 270 271 271 269 265 259 256 256 256 257 259 260 262 265 269 272 273 270 263 261 265 269 270 265 263 261 260 261 263 265 268 269 270 271 269 267 267 266 266 268 269 271 270 268 267 268 270 270 269 268 268 267 266 266 267 269 270 270 269 268
269 269 269 268 263 260 260 260 258 256 257 260 261 263 265 269 271 272 270 270 270 269 268 268 269 270 270 271 271 271 269 264 257 256 258 261 262 262 263 265 267 270 271 268 264 264 267 270 269 263 259 258 258 260 262 265 267 270 271 269 267 267 268 268 269 272 274 276 276 275 273 272 273 274 273 272 271 270 270 268 268 269 271 271 272 270
271 269 271 273 270 265 259 258 258 258 259 261 262 264 268 271 272 272 272 272 272 271 269 268 268 270 270 270 270 270 270 265 258 254 255 259 262 264 265 266 267 268 268 264 252 249 257 262 262 260 259 259 258 259 262 264 267 269 269 266 264 264 266 269 271 272 275 277 278 278 276 275 275 276 276 276 275 275 274 273 271 270 270 271 272 272
276 272 269 269 271 270 263 257 257 258 257 258 261 264 268 270 270 272 273 273 272 271 270 268 269 269 270 269 269 269 269 266 260 255 253 257 260 262 264 266 267 266 263 256 238 232 240 245 246 247 250 254 256 258 260 261 264 267 267 265 263 263 266 269 271 273 274 275 274 275 275 275 275 276 277 277 278 279 278 277 275 273 271 271 271 271
280 278 273 268 266 267 265 261 259 258 257 257 260 262 263 266 269 270 272 273 272 272 270 268 267 267 266 268 269 267 266 264 260 256 255 256 258 260 261 261 262 262 261 256 243 235 236 239 241 244 246 249 252 255 257 257 260 263 263 263 264 265 266 267 269 272 273 270 268 268 270 272 274 275 276 277 278 278 279 278 277 276 274 272 271 270
280 280 278 274 269 265 262 260 257 258 259 258 259 260 259 262 266 269 270 272 273 274 272 270 268 266 264 266 267 264 263 264 262 260 259 259 257 255 254 254 253 253 254 255 252 247 245 246 250 253 252 249 247 249 254 255 256 257 258 260 264 266 266 263 264 266 266 264 262 263 265 268 271 272 273 274 275 276 275 276 276 276 275 273 271 270
281 281 280 278 274 270 265 260 256 255 256 256 256 257 258 259 261 264 267 268 270 271 271 271 269 266 265 265 265 263 263 265 265 264 261 260 257 253 249 247 245 244 246 251 253 252 251 252 255 258 257 254 251 251 255 258 257 255 257 259 260 262 263 261 258 259 259 259 259 259 259 261 263 266 269 271 272 272 271 271 272 273 274 274 272 270
281 281 280 278 276 273 270 266 262 258 257 256 255 255 256 257 258 261 263 264 265 267 268 268 268 267 266 263 263 263 264 265 264 263 261 259 257 255 251 249 249 248 250 254 257 257 254 251 252 256 258 258 257 256 258 261 260 257 257 259 259 259 259 258 254 254 256 257 256 254 254 254 257 262 267 269 269 268 267 267 268 268 270 272 273 272
278 278 278 276 274 272 270 269 267 265 262 261 260 259 258 258 259 260 261 262 263 264 265 265 266 266 265 261 261 262 264 264 263 262 261 259 258 257 256 255 256 256 256 257 260 261 259 256 253 252 254 256 259 259 260 262 262 259 257 261 264 261 257 257 254 251 252 253 253 253 252 252 253 257 263 266 267 266 266 265 265 265 265 267 268 270
276 277 277 275 273 270 269 269 267 267 266 264 264 264 264 264 263 263 263 263 263 263 263 264 265 265 263 262 262 262 263 265 265 265 264 262 260 259 258 259 260 261 260 259 258 258 258 258 256 255 253 253 255 256 257 258 258 257 257 261 264 261 259 263 261 256 253 252 253 254 254 252 252 254 259 262 264 264 264 263 263 262 265 267 268 267
274 275 276 275 274 271 269 268 267 267 267 266 266 266 266 267 267 267 266 266 265 264 265 266 267 266 265 264 262 262 264 266 267 268 268 266 263 261 261 262 263 263 263 262 260 258 256 255 256 257 255 253 251 251 252 253 255 257 257 259 260 260 262 267 266 262 259 256 255 255 256 255 255 256 259 261 261 261 261 262 261 261 265 270 272 271
272 273 274 274 274 272 271 270 269 269 268 267 267 266 265 265 265 265 265 266 266 265 265 266 267 268 268 267 265 264 264 265 266 268 269 269 268 267 266 266 265 264 263 262 262 260 258 256 255 256 257 256 253 251 250 250 252 254 255 256 258 260 262 264 264 263 262 260 259 258 257 258 258 259 260 260 260 260 259 260 260 261 264 269 273 274
272 272 273 272 272 272 271 270 270 269 269 269 268 267 266 264 263 263 264 264 264 265 265 265 265 267 268 268 268 267 266 267 268 269 270 270 271 272 272 272 270 268 266 265 264 262 260 258 256 255 256 256 256 255 253 251 251 251 252 254 256 259 262 262 261 261 261 260 260 260 260 260 261 262 262 261 260 259 259 259 260 261 262 266 271 271
272 271 272 271 272 272 272 270 269 268 268 268 268 268 267 266 265 264 264 264 264 265 266 265 265 266 267 267 268 268 268 268 269 269 270 271 272 273 274 274 273 272 270 269 267 265 263 261 259 257 255 255 256 256 256 254 253 252 252 252 253 256 258 259 259 261 262 262 261 260 260 261 261 262 263 262 261 260 259 259 260 259 259 264 270 271
270 270 270 270 270 270 271 270 269 268 267 266 265 265 265 266 266 265 265 266 266 266 268 268 268 268 268 267 268 268 268 268 268 268 269 270 271 271 271 271 271 271 270 269 267 265 263 262 260 259 257 255 255 255 255 254 254 254 254 253 253 253 254 256 258 261 262 262 261 260 260 259 260 261 262 262 262 262 262 260 259 258 257 260 266 269
270 269 268 268 267 268 268 269 269 269 268 266 265 264 264 264 265 265 266 267 268 269 271 272 271 270 270 269 269 269 268 269 269 269 269 270 269 269 269 269 268 267 266 266 265 264 263 261 260 259 258 258 257 255 254 253 252 253 255 256 257 257 256 257 257 258 258 258 258 258 259 259 259 259 260 260 260 261 262 262 261 260 258 259 261 264
270 269 268 267 267 267 267 268 269 270 269 269 268 266 264 264 264 265 266 267 268 268 269 270 269 267 268 268 268 268 268 269 269 269 269 269 268 268 267 267 266 264 263 262 261 261 260 258 257 257 258 258 258 257 255 254 253 253 254 255 257 258 259 259 258 257 257 257 257 257 258 258 258 258 258 257 257 258 261 262 263 262 262 261 261 264
271 270 269 268 267 267 268 269 270 270 270 270 269 268 267 268 268 267 267 267 266 265 264 265 264 263 264 266 266 266 266 266 267 269 269 269 269 267 266 266 264 263 262 260 259 258 257 256 256 257 258 260 260 259 258 257 258 259 258 258 257 257 258 258 258 257 257 257 257 258 258 258 259 259 259 257 258 259 261 262 263 263 264 264 265 267
272 271 271 270 269 269 269 270 270 270 270 270 270 270 272 272 271 269 267 266 265 265 264 263 263 263 263 264 264 264 264 265 266 268 268 269 270 269 268 267 265 264 262 261 259 259 257 257 257 258 259 261 262 261 261 261 262 263 263 262 261 260 259 259 259 258 258 257 258 258 259 259 259 259 259 259 259 261 262 263 263 263 264 265 266 267
272 272 271 271 271 271 271 271 271 271 271 271 273 274 274 272 270 269 268 267 266 265 265 264 264 264 264 264 264 265 266 267 267 267 267 267 267 268 268 268 267 266 265 264 262 261 259 258 258 259 260 261 262 262 263 263 264 264 264 264 264 263 262 261 260 260 260 260 260 260 260 260 260 260 260 260 260 260 261 262 262 262 262 263 264 265
270 271 271 271 272 272 272 271 271 270 271 274 275 275 273 272 272 271 270 269 267 266 266 266 267 266 265 265 266 266 266 267 267 267 267 266 266 266 266 266 266 266 266 265 265 264 262 261 260 260 261 261 262 262 263 263 263 264 264 264 264 264 263 262 262 262 262 262 262 262 262 262 262 262 262 262 262 262 262 262 261 262 262 262 263 263
271 270 270 270 271 271 271 271 270 271 273 274 273 272 272 273 273 272 271 270 269 269 269 269 268 268 267 266 266 266 266 266 266 266 265 265 265 265 265 265 265 265 265 264 264 264 263 263 262 262 262 262 263 263 263 263 263 263 264 264 264 264 264 264 263 262 262 261 261 261 262 262 262 263 264 264 264 264 264 264 263 263 262 262 263 263
273 272 271 270 270 270 270 269 270 272 273 272 272 272 273 273 272 272 272 271 271 271 271 270 270 269 269 268 267 266 265 265 265 264 264 264 264 264 264 264 264 264 263 263 263 264 264 264 264 263 263 264 264 264 264 264 264 264 264 264 264 264 264 264 264 263 262 261 261 261 261 262 262 263 263 264 265 265 265 265 265 265 264 264 264 264
274 273 272 271 270 270 270 269 270 271 271 271 272 272 272 272 273 273 273 273 273 272 272 271 270 269 267 267 266 265 265 265 265 264 264 263 263 263 263 263 263 262 262 263 263 264 264 265 265 264 264 264 264 264 264 263 263 263 263 263 264 264 264 264 264 263 263 262 262 262 262 262 262 263 263 264 265 265 265 265 265 266 266 265 265 265
274 273 272 272 271 270 270 269 269 270 270 270 270 271 271 272 273 273 273 273 273 272 272 270 268 267 266 265 265 265 264 263 263 263 263 263 263 263 263 263 263 263 263 263 264 264 264 264 264 264 264 263 263 263 263 263 263 263 263 264 264 264 264 264 264 264 264 263 263 263 263 263 263 263 263 264 264 264 264 265 265 266 266 266 266 266
274 274 274 273 273 272 271 270 270 270 271 270 270 271 272 273 274 274 273 273 272 272 271 269 268 267 266 265 264 264 263 262 261 261 262 262 263 263 263 263 264 264 264 264 264 264 264 264 264 264 264 264 264 264 264 264 264 264 264 264 265 265 265 265 265 265 265 265 265 265 264 265 265 264 264 263 263 263 263 263 263 264 265 266 266 267
275 275 275 275 275 274 273 272 272 272 272 272 273 273 273 274 274 273 272 272 272 271 270 270 269 268 267 266 265 264 263 262 261 261 261 261 262 262 263 263 264 264 264 265 265 265 265 265 265 265 265 265 265 265 266 265 265 265 265 265 265 265 265 265 266 266 266 266 266 266 266 266 266 266 265 265 264 264 263 263 263 264 264 264 265 266
274 274 274 275 275 274 274 274 274 273 274 274 275 275 274 274 272 271 271 272 272 271 271 270 270 269 268 267 266 264 263 262 261 260 260 260 261 262 262 263 264 265 265 266 266 267 266 266 266 266 266 266 266 266 266 266 265 265 265 265 265 265 265 265 265 265 265 265 266 265 265 265 265 265 265 265 265 265 265 265 265 265 265 264 264 265
273 273 273 273 273 274 274 275 275 275 275 275 276 275 274 273 271 271 271 272 272 271 270 270 269 269 268 267 266 265 263 263 263 263 262 261 262 263 263 264 266 266 267 268 269 268 268 268 267 267 267 267 267 267 266 266 265 265 265 264 264 265 264 264 264 263 263 264 264 264 263 263 263 263 263 263 263 264 264 265 265 265 265 265 265 266
273 272 272 272 272 274 275 276 277 277 276 276 275 274 273 273 273 273 273 272 272 271 270 269 269 268 268 267 266 266 265 265 266 265 265 264 264 264 264 265 266 267 268 268 269 269 268 268 269 269 269 269 269 268 268 267 267 267 266 266 265 264 264 264 264 263 263 263 263 262 262 262 262 262 261 261 261 261 261 262 263 263 264 264 265 265
273 272 272 272 272 273 274 276 277 277 277 276 275 274 274 274 274 275 274 273 273 272 271 271 270 270 270 269 267 266 266 266 265 265 266 266 266 266 265 265 266 267 268 268 268 268 268 269 270 270 270 270 270 270 270 269 269 269 268 267 267 267 267 267 266 266 265 265 264 263 263 263 262 262 261 261 260 260 260 260 261 261 262 263 263 262
276 275 274 273 272 272 272 273 274 274 274 275 275 275 275 275 275 274 274 273 273 272 272 273 273 273 273 273 271 270 268 267 266 265 265 265 266 266 267 266 266 266 267 267 267 266 267 269 270 270 270 271 271 271 271 271 270 270 269 269 270 271 270 270 269 269 269 268 267 266 265 265 264 263 262 261 261 260 260 260 260 260 259 260 260 258
278 277 276 276 274 273 272 271 271 271 272 273 274 274 275 274 274 273 273 273 272 272 272 272 272 272 271 272 272 271 271 270 269 267 266 266 265 265 266 267 267 267 266 266 265 265 266 267 267 268 269 269 269 270 270 271 271 271 271 272 272 272 272 272 273 273 272 271 270 269 267 266 264 263 262 261 261 260 259 258 258 257 255 255 255 253
278 277 277 277 276 275 274 274 274 273 273 273 273 273 273 273 272 272 272 272 272 272 271 271 270 269 269 268 268 268 269 269 269 269 269 268 267 266 265 266 266 266 267 267 266 266 266 266 267 268 268 268 269 269 270 270 271 272 272 273 273 273 274 275 275 274 273 271 269 268 266 264 262 260 259 257 255 253 251 250 249 249 246 245 247 246
279 279 278 277 277 278 278 278 276 275 274 274 273 273 272 272 272 272 272 272 271 271 271 271 270 270 269 269 269 269 268 268 269 268 268 268 268 268 267 267 266 267 267 267 267 268 268 268 268 268 268 269 269 269 270 270 271 271 272 273 273 274 274 274 272 270 268 267 265 264 261 257 252 250 248 245 241 239 236 234 233 235 237 239 241 242
280 280 279 278 278 279 279 279 277 276 275 275 275 274 273 273 273 273 273 273 272 272 271 270 270 270 270 270 270 270 270 269 269 269 268 268 268 268 268 267 267 267 267 268 268 268 269 269 269 269 269 269 269 270 270 270 270 271 271 272 272 271 269 267 264 264 263 262 260 256 250 244 241 239 238 236 232 232 233 233 233 234 236 239 240 241
282 281 281 280 280 280 279 279 278 277 277 276 276 276 275 275 274 273 272 272 272 271 271 271 270 270 271 271 270 270 269 269 269 269 270 270 270 269 269 268 267 267 267 267 268 268 268 268 268 268 269 268 268 269 268 268 268 268 267 265 262 259 258 258 258 258 257 253 247 243 238 236 236 235 233 233 234 235 237 238 237 236 237 239 242 245
283 282 283 283 283 282 281 281 281 280 279 279 279 278 277 276 275 274 273 272 270 269 269 269 269 269 268 268 269 269 270 270 271 272 272 271 271 269 268 267 266 266 265 265 265 265 265 265 265 265 264 263 263 262 260 260 259 255 251 248 245 248 256 257 250 246 242 233 224 222 222 225 233 236 233 231 233 236 237 236 233 233 235 240 246 250
Height
5737 5737 5737 5736 5736 5737 5739 5740 5740 5741 5741 5742 5743 5743 5744 5744 5745 5745 5746 5747 5748 5748 5749 5749 5750 5750 5751 5753 5755 5757 5758 5759 5759 5760 5761 5762 5762 5763 5764 5765 5765 5766 5765 5766 5766 5766 5767 5767 5767 5767 5767 5766 5766 5765 5764 5764 5765 5766 5767 5768 5770 5770 5771 5772 5773 5773 5774 5774 5774 5775 5775 5775 5776 5776 5776 5776 5777 5777 5777 5777 5777 5777 5778 5778 5778 5778
5735 5736 5735 5734 5734 5736 5737 5738 5738 5739 5740 5740 5741 5742 5743 5743 5743 5744 5744 5745 5745 5746 5747 5747 5748 5748 5749 5751 5753 5754 5755 5756 5756 5757 5758 5759 5759 5760 5761 5762 5763 5763 5763 5764 5764 5764 5764 5764 5764 5764 5764 5763 5763 5762 5761 5761 5762 5763 5763 5765 5766 5767 5768 5769 5769 5770 5770 5770 5771 5771 5772 5772 5773 5773 5773 5773 5773 5773 5774 5774 5774 5774 5775 5775 5775 5775
5733 5733 5732 5732 5733 5734 5735 5736 5737 5737 5738 5739 5740 5740 5741 5742 5742 5742 5742 5742 5743 5744 5745 5745 5746 5746 5747 5749 5750 5751 5752 5753 5753 5754 5754 5755 5757 5758 5759 5760 5760 5761 5761 5761 5761 5761 5761 5761 5761 5761 5761 5761 5760 5759 5758 5758 5759 5760 5761 5762 5763 5764 5765 5765 5766 5766 5766 5767 5767 5768 5768 5769 5769 5769 5769 5770 5770 5770 5770 5770 5771 5771 5772 5772 5772 5772
5730 5729 5729 5730 5731 5731 5732 5734 5735 5736 5736 5737 5738 5738 5739 5739 5740 5739 5739 5739 5740 5742 5743 5743 5744 5744 5744 5746 5748 5749 5749 5750 5750 5751 5751 5752 5754 5755 5756 5757 5757 5758 5759 5759 5759 5759 5759 5759 5759 5759 5759 5758 5758 5756 5755 5755 5756 5757 5758 5759 5759 5760 5761 5762 5762 5762 5763 5763 5763 5764 5764 5765 5765 5766 5766 5766 5766 5766 5767 5767 5767 5768 5769 5769 5769 5769
5727 5726 5727 5727 5728 5729 5730 5731 5732 5733 5734 5734 5735 5736 5737 5737 5737 5737 5737 5737 5738 5739 5740 5741 5742 5742 5742 5743 5744 5746 5747 5747 5748 5748 5749 5749 5750 5752 5752 5753 5754 5756 5756 5757 5757 5756 5757 5757 5756 5756 5756 5756 5755 5753 5751 5752 5753 5754 5755 5755 5756 5757 5758 5758 5758 5759 5759 5760 5760 5760 5761 5761 5762 5762 5762 5762 5763 5763 5763 5764 5764 5765 5765 5766 5766 5766
5724 5723 5724 5725 5725 5726 5727 5728 5729 5730 5731 5731 5732 5733 5733 5733 5734 5734 5734 5735 5736 5736 5737 5739 5740 5740 5741 5740 5741 5742 5743 5744 5744 5745 5746 5746 5747 5748 5749 5750 5752 5753 5754 5754 5755 5755 5755 5755 5754 5754 5754 5753 5752 5750 5748 5750 5750 5751 5751 5752 5753 5754 5754 5754 5755 5755 5756 5756 5757 5757 5758 5758 5758 5759 5759 5759 5759 5760 5760 5761 5761 5762 5762 5762 5762 5762
5721 5720 5721 5722 5722 5724 5725 5725 5726 5726 5727 5728 5729 5730 5730 5731 5731 5731 5732 5732 5733 5733 5734 5735 5737 5737 5739 5739 5738 5739 5739 5740 5741 5741 5742 5743 5743 5744 5745 5747 5749 5750 5751 5752 5752 5752 5753 5753 5752 5752 5752 5751 5750 5747 5746 5748 5748 5748 5748 5748 5749 5750 5750 5751 5751 5752 5753 5753 5754 5754 5755 5755 5756 5756 5756 5757 5757 5757 5757 5758 5758 5758 5759 5759 5759 5760
5718 5718 5718 5719 5720 5721 5722 5722 5723 5723 5725 5725 5726 5726 5727 5727 5728 5728 5729 5729 5730 5730 5731 5732 5733 5734 5736 5738 5736 5736 5736 5736 5736 5737 5738 5739 5740 5741 5742 5743 5745 5746 5747 5748 5749 5749 5750 5750 5749 5749 5749 5748 5747 5744 5744 5745 5745 5745 5745 5745 5746 5747 5747 5747 5748 5749 5749 5750 5751 5751 5752 5752 5753 5754 5754 5754 5755 5755 5755 5755 5755 5755 5756 5756 5757 5757
5716 5716 5716 5716 5718 5719 5719 5719 5720 5721 5722 5722 5723 5723 5724 5724 5724 5725 5725 5726 5726 5727 5728 5729 5729 5730 5732 5734 5734 5733 5733 5733 5733 5733 5734 5735 5736 5736 5737 5739 5740 5742 5743 5744 5744 5745 5746 5746 5745 5745 5745 5745 5744 5742 5741 5742 5742 5743 5743 5743 5743 5744 5744 5744 5745 5746 5746 5747 5748 5749 5749 5750 5750 5751 5752 5752 5752 5752 5753 5753 5753 5753 5753 5753 5754 5754
5714 5714 5714 5715 5715 5716 5716 5717 5717 5718 5719 5719 5720 5720 5721 5720 5721 5721 5722 5722 5723 5723 5725 5725 5725 5725 5726 5729 5731 5730 5730 5731 5731 5731 5731 5732 5731 5732 5733 5734 5735 5737 5739 5740 5740 5741 5741 5741 5741 5741 5741 5741 5741 5739 5739 5739 5739 5740 5740 5740 5741 5741 5741 5741 5742 5743 5743 5744 5745 5746 5746 5747 5747 5748 5749 5749 5749 5750 5750 5750 5750 5750 5750 5751 5751 5751
5712 5712 5712 5713 5713 5713 5714 5714 5715 5715 5716 5716 5717 5717 5717 5717 5718 5718 5719 5719 5719 5720 5722 5722 5721 5721 5721 5724 5727 5727 5728 5728 5728 5729 5729 5728 5728 5728 5729 5730 5731 5732 5734 5735 5735 5736 5736 5736 5736 5737 5737 5737 5737 5736 5737 5736 5736 5737 5738 5738 5739 5739 5739 5739 5739 5740 5741 5742 5742 5743 5743 5743 5744 5745 5746 5746 5746 5747 5747 5747 5747 5747 5748 5748 5748 5748
5710 5710 5710 5711 5711 5711 5712 5712 5712 5713 5713 5713 5714 5714 5715 5715 5715 5716 5716 5716 5716 5717 5718 5718 5717 5717 5718 5719 5722 5723 5724 5725 5725 5725 5725 5725 5725 5725 5726 5726 5727 5728 5730 5731 5731 5732 5731 5731 5732 5732 5733 5733 5734 5734 5734 5734 5734 5734 5735 5736 5736 5737 5737 5737 5737 5737 5738 5738 5739 5740 5740 5740 5741 5742 5742 5743 5743 5744 5744 5744 5744 5744 5745 5745 5745 5745
5708 5708 5709 5709 5709 5709 5710 5710 5710 5711 5711 5711 5711 5712 5712 5712 5712 5713 5713 5713 5714 5714 5714 5714 5714 5715 5715 5716 5717 5719 5720 5721 5722 5721 5721 5721 5721 5722 5722 5723 5723 5724 5726 5727 5728 5727 5727 5727 5728 5729 5730 5731 5731 5732 5732 5732 5732 5733 5733 5733 5734 5734 5734 5734 5734 5734 5735 5735 5736 5737 5737 5738 5738 5738 5739 5740 5740 5741 5741 5741 5741 5741 5742 5742 5743 5743
5706 5706 5706 5706 5707 5707 5707 5708 5708 5708 5708 5709 5709 5709 5710 5710 5710 5710 5711 5711 5711 5711 5711 5711 5712 5712 5713 5713 5714 5715 5716 5717 5718 5718 5718 5718 5718 5719 5719 5719 5720 5720 5722 5723 5724 5723 5724 5725 5726 5727 5728 5728 5729 5729 5730 5730 5730 5731 5731 5731 5731 5731 5731 5732 5732 5732 5732 5733 5733 5734 5735 5735 5735 5735 5736 5736 5737 5738 5738 5738 5739 5739 5739 5739 5740 5740
5704 5704 5703 5704 5704 5705 5705 5705 5705 5705 5706 5706 5707 5707 5707 5707 5707 5707 5708 5708 5708 5708 5708 5708 5709 5709 5710 5710 5711 5712 5712 5714 5715 5715 5715 5715 5715 5716 5716 5716 5717 5717 5718 5720 5720 5721 5721 5722 5723 5724 5725 5726 5726 5726 5727 5728 5728 5728 5729 5729 5728 5729 5729 5730 5730 5730 5730 5730 5731 5731 5732 5732 5732 5732 5733 5733 5734 5735 5735 5736 5736 5736 5736 5737 5737 5737
5702 5702 5702 5701 5702 5702 5703 5702 5702 5703 5703 5703 5703 5704 5704 5704 5704 5704 5704 5705 5705 5705 5705 5705 5706 5706 5707 5707 5707 5708 5709 5710 5711 5712 5712 5712 5712 5713 5713 5713 5714 5715 5716 5717 5718 5719 5719 5720 5721 5721 5722 5723 5723 5723 5724 5725 5725 5725 5726 5726 5726 5726 5727 5727 5728 5728 5728 5728 5728 5728 5729 5729 5729 5729 5730 5730 5731 5732 5732 5733 5733 5734 5734 5734 5734 5735
5699 5699 5700 5700 5699 5700 5700 5700 5700 5700 5700 5700 5700 5701 5701 5701 5701 5701 5701 5701 5701 5701 5701 5702 5703 5703 5703 5703 5704 5705 5706 5707 5708 5709 5709 5709 5710 5710 5711 5711 5712 5713 5714 5715 5716 5717 5717 5717 5718 5719 5719 5720 5720 5720 5721 5722 5722 5722 5722 5722 5723 5724 5724 5724 5725 5726 5726 5726 5726 5726 5726 5726 5726 5727 5727 5728 5728 5729 5729 5730 5730 5731 5731 5732 5732 5732
5695 5696 5697 5697 5697 5697 5697 5697 5697 5697 5697 5697 5698 5698 5698 5698 5698 5698 5698 5697 5697 5697 5697 5698 5700 5700 5700 5700 5701 5702 5702 5703 5704 5705 5706 5707 5707 5708 5709 5709 5709 5710 5711 5712 5713 5714 5714 5714 5715 5716 5717 5717 5717 5717 5717 5718 5719 5719 5719 5720 5720 5721 5721 5721 5721 5722 5723 5723 5723 5723 5723 5723 5724 5724 5724 5725 5726 5726 5726 5727 5727 5728 5728 5729 5729 5729
5691 5692 5693 5693 5694 5694 5694 5694 5694 5694 5694 5694 5695 5695 5695 5695 5695 5695 5695 5694 5694 5693 5693 5694 5695 5696 5697 5697 5698 5698 5699 5700 5701 5702 5703 5704 5704 5705 5706 5707 5707 5708 5709 5710 5710 5711 5712 5712 5712 5713 5713 5714 5714 5713 5713 5714 5715 5716 5716 5717 5717 5718 5718 5718 5718 5718 5719 5719 5719 5720 5720 5720 5721 5721 5721 5722 5723 5723 5723 5723 5724 5724 5724 5725 5725 5726
5687 5687 5688 5689 5690 5690 5690 5690 5691 5691 5691 5691 5691 5691 5691 5692 5692 5691 5691 5691 5691 5690 5689 5690 5690 5692 5693 5694 5694 5695 5695 5697 5697 5698 5699 5700 5700 5701 5702 5703 5704 5705 5706 5707 5708 5708 5709 5709 5710 5710 5710 5710 5711 5711 5711 5711 5711 5712 5713 5713 5714 5714 5714 5714 5715 5715 5715 5715 5716 5716 5717 5717 5718 5718 5719 5719 5720 5720 5720 5720 5720 5721 5721 5722 5722 5722
5682 5682 5683 5684 5685 5685 5685 5685 5686 5687 5687 5687 5687 5687 5687 5687 5687 5687 5687 5687 5687 5686 5686 5686 5686 5687 5690 5691 5690 5691 5692 5692 5693 5694 5695 5696 5696 5697 5698 5699 5700 5701 5702 5703 5704 5705 5706 5706 5706 5706 5706 5707 5707 5708 5708 5708 5708 5709 5709 5709 5710 5711 5711 5711 5711 5712 5712 5712 5713 5713 5714 5714 5715 5715 5716 5716 5717 5717 5717 5717 5717 5717 5718 5719 5719 5719
5677 5677 5678 5678 5679 5680 5680 5680 5681 5681 5682 5682 5682 5682 5683 5683 5683 5683 5682 5682 5683 5682 5682 5681 5681 5683 5685 5686 5687 5687 5687 5688 5689 5690 5691 5691 5692 5692 5693 5694 5696 5697 5698 5699 5700 5701 5701 5702 5703 5703 5703 5703 5704 5704 5704 5705 5705 5705 5705 5706 5707 5707 5707 5707 5708 5708 5708 5709 5709 5710 5711 5712 5712 5712 5713 5713 5714 5714 5714 5714 5714 5714 5715 5715 5716 5716
5673 5673 5672 5673 5674 5675 5675 5675 5675 5676 5676 5677 5677 5677 5678 5678 5678 5678 5678 5678 5678 5678 5677 5677 5677 5677 5680 5682 5683 5683 5683 5683 5684 5685 5686 5687 5688 5688 5689 5690 5691 5692 5693 5694 5695 5696 5697 5697 5698 5698 5699 5700 5700 5700 5701 5701 5701 5701 5701 5702 5702 5703 5703 5703 5704 5704 5704 5705 5706 5706 5707 5708 5708 5709 5709 5710 5710 5710 5710 5710 5711 5711 5711 5712 5712 5713
5669 5668 5668 5668 5668 5669 5670 5670 5670 5671 5671 5672 5672 5673 5673 5673 5673 5673 5673 5673 5672 5672 5673 5673 5671 5671 5674 5677 5679 5679 5679 5679 5679 5680 5681 5682 5683 5684 5684 5685 5685 5686 5687 5688 5689 5691 5692 5693 5693 5694 5694 5695 5696 5696 5697 5697 5697 5697 5697 5697 5698 5699 5699 5700 5700 5700 5701 5702 5702 5702 5703 5703 5704 5705 5706 5706 5707 5707 5707 5707 5707 5708 5708 5708 5709 5709
5665 5664 5663 5663 5663 5663 5664 5665 5665 5666 5666 5667 5667 5667 5668 5668 5668 5668 5668 5668 5667 5666 5668 5668 5666 5666 5669 5671 5672 5673 5674 5675 5675 5675 5675 5676 5677 5678 5678 5679 5680 5681 5682 5683 5684 5685 5686 5687 5688 5688 5689 5690 5690 5691 5691 5692 5692 5692 5693 5693 5693 5694 5695 5695 5696 5696 5697 5697 5698 5698 5699 5699 5700 5701 5702 5702 5703 5703 5703 5703 5704 5704 5705 5705 5705 5705
5660 5659 5659 5659 5658 5658 5659 5660 5661 5661 5661 5661 5662 5662 5662 5662 5662 5663 5663 5662 5661 5661 5662 5663 5662 5663 5664 5664 5665 5667 5668 5669 5669 5669 5669 5670 5671 5672 5672 5673 5674 5675 5676 5677 5678 5679 5680 5681 5682 5683 5683 5684 5684 5685 5686 5686 5687 5687 5687 5688 5689 5690 5690 5691 5691 5692 5692 5693 5693 5694 5694 5694 5695 5696 5696 5697 5698 5699 5699 5700 5700 5701 5701 5702 5701 5700
5654 5654 5654 5653 5653 5653 5653 5654 5655 5656 5656 5656 5656 5656 5656 5657 5657 5657 5657 5657 5657 5657 5657 5657 5658 5659 5659 5659 5660 5661 5662 5662 5662 5662 5663 5664 5665 5666 5666 5667 5668 5669 5670 5671 5672 5672 5673 5674 5675 5676 5677 5678 5678 5679 5679 5680 5681 5681 5682 5683 5684 5685 5685 5686 5686 5687 5687 5687 5688 5688 5689 5690 5690 5690 5691 5691 5693 5694 5694 5695 5696 5696 5697 5696 5695 5695
5649 5648 5648 5648 5648 5647 5647 5648 5649 5650 5650 5651 5651 5651 5651 5651 5651 5651 5651 5652 5653 5652 5651 5653 5655 5656 5655 5654 5655 5655 5655 5655 5655 5656 5657 5658 5659 5659 5660 5661 5662 5662 5663 5664 5665 5666 5667 5667 5668 5669 5670 5671 5672 5673 5673 5674 5674 5675 5676 5677 5678 5679 5680 5680 5681 5681 5681 5682 5682 5683 5683 5684 5685 5686 5686 5686 5687 5688 5689 5689 5691 5691 5692 5691 5691 5690
5643 5643 5643 5643 5643 5643 5643 5643 5643 5644 5644 5645 5645 5646 5646 5646 5646 5646 5646 5647 5648 5647 5647 5648 5649 5650 5650 5649 5649 5649 5648 5648 5649 5650 5650 5651 5652 5653 5654 5654 5655 5656 5657 5658 5658 5659 5660 5661 5661 5662 5663 5664 5665 5666 5667 5668 5669 5669 5670 5671 5672 5673 5674 5675 5675 5676 5675 5676 5676 5677 5678 5679 5679 5680 5681 5681 5681 5682 5683 5684 5685 5686 5686 5686 5686 5685
5638 5637 5638 5638 5638 5638 5638 5637 5638 5638 5638 5638 5639 5639 5640 5640 5641 5641 5642 5643 5642 5642 5642 5642 5641 5643 5644 5643 5643 5643 5642 5641 5642 5642 5643 5645 5645 5646 5647 5648 5649 5650 5651 5652 5652 5653 5654 5654 5655 5655 5656 5657 5658 5659 5660 5661 5662 5663 5664 5665 5666 5666 5667 5668 5669 5669 5669 5670 5670 5671 5672 5673 5674 5675 5675 5676 5676 5676 5677 5678 5678 5679 5680 5680 5680 5679
5632 5632 5632 5632 5631 5632 5633 5632 5632 5631 5631 5631 5632 5632 5633 5635 5636 5637 5637 5636 5636 5635 5636 5635 5634 5636 5638 5636 5636 5637 5636 5635 5635 5635 5636 5637 5638 5639 5640 5641 5642 5643 5644 5645 5646 5646 5647 5648 5648 5649 5649 5650 5651 5652 5654 5654 5655 5656 5657 5659 5659 5660 5661 5661 5662 5663 5663 5663 5664 5664 5665 5667 5668 5669 5670 5670 5670 5671 5672 5672 5673 5673 5673 5674 5674 5673
5627 5626 5626 5625 5625 5626 5627 5626 5625 5625 5624 5624 5624 5626 5628 5629 5629 5629 5630 5629 5628 5629 5629 5628 5627 5630 5632 5630 5629 5629 5629 5630 5630 5630 5630 5631 5631 5632 5633 5633 5635 5636 5637 5638 5639 5640 5641 5641 5642 5642 5643 5643 5644 5645 5646 5647 5648 5649 5650 5651 5652 5652 5653 5654 5655 5656 5656 5657 5657 5658 5659 5660 5661 5662 5663 5663 5664 5664 5665 5666 5667 5667 5667 5667 5667 5667
5620 5620 5619 5618 5618 5620 5621 5620 5619 5618 5617 5617 5619 5621 5622 5622 5621 5621 5622 5622 5622 5622 5622 5621 5622 5624 5624 5623 5623 5623 5623 5624 5624 5624 5624 5625 5625 5625 5625 5626 5627 5628 5629 5630 5631 5632 5633 5634 5635 5635 5635 5636 5637 5637 5638 5639 5640 5641 5642 5642 5643 5644 5645 5646 5647 5648 5649 5649 5650 5650 5651 5652 5654 5655 5656 5656 5657 5657 5658 5659 5660 5660 5660 5660 5661 5661
5615 5614 5613 5612 5612 5613 5614 5613 5612 5611 5610 5612 5614 5614 5614 5613 5614 5614 5615 5615 5615 5615 5615 5615 5616 5617 5617 5617 5617 5617 5617 5618 5617 5617 5617 5618 5618 5618 5618 5619 5620 5621 5622 5622 5623 5624 5625 5627 5627 5628 5628 5629 5629 5630 5630 5631 5632 5633 5634 5634 5635 5636 5637 5638 5639 5640 5641 5641 5641 5642 5643 5645 5646 5647 5647 5648 5649 5650 5651 5652 5652 5653 5653 5654 5654 5654
5609 5609 5608 5607 5606 5607 5607 5606 5604 5603 5605 5607 5607 5606 5607 5607 5608 5608 5607 5607 5608 5608 5609 5609 5610 5610 5610 5610 5610 5610 5611 5611 5610 5610 5610 5610 5610 5611 5612 5612 5613 5614 5614 5615 5615 5616 5617 5619 5620 5621 5621 5622 5622 5623 5623 5623 5624 5626 5626 5627 5627 5628 5628 5630 5631 5632 5632 5633 5633 5634 5635 5637 5638 5639 5639 5640 5641 5642 5643 5643 5644 5645 5646 5646 5646 5646
5602 5602 5602 5601 5601 5600 5601 5599 5597 5598 5600 5600 5600 5600 5601 5601 5601 5601 5600 5600 5601 5602 5602 5602 5603 5603 5603 5603 5604 5604 5604 5604 5603 5602 5603 5603 5603 5604 5605 5605 5606 5607 5607 5607 5608 5608 5609 5611 5612 5613 5614 5614 5614 5615 5615 5616 5617 5618 5619 5619 5620 5620 5621 5622 5623 5623 5624 5625 5626 5627 5628 5629 5630 5631 5632 5632 5633 5634 5634 5635 5636 5637 5638 5639 5639 5639
5595 5595 5595 5595 5594 5594 5594 5593 5593 5592 5593 5594 5594 5594 5595 5595 5595 5595 5594 5593 5594 5595 5595 5596 5596 5596 5596 5596 5596 5597 5597 5597 5596 5595 5596 5597 5597 5597 5598 5598 5598 5599 5599 5600 5601 5601 5602 5603 5604 5605 5606 5607 5607 5607 5608 5609 5610 5611 5612 5612 5612 5613 5613 5614 5615 5615 5616 5617 5618 5619 5620 5621 5622 5623 5624 5625 5625 5626 5626 5627 5628 5628 5629 5630 5631 5631
5588 5588 5588 5588 5588 5588 5588 5587 5587 5587 5587 5588 5588 5588 5588 5588 5588 5588 5587 5586 5587 5588 5588 5589 5589 5588 5589 5589 5589 5590 5591 5591 5590 5589 5590 5590 5590 5590 5591 5591 5591 5592 5593 5593 5594 5594 5595 5596 5597 5598 5598 5599 5599 5599 5600 5601 5603 5604 5605 5605 5605 5605 5606 5607 5607 5607 5608 5610 5611 5612 5612 5613 5614 5615 5616 5617 5617 5618 5618 5619 5620 5620 5621 5622 5622 5623
5581 5581 5581 5581 5581 5581 5581 5581 5581 5581 5581 5582 5582 5582 5582 5582 5582 5581 5580 5579 5580 5581 5581 5581 5581 5582 5582 5582 5583 5584 5584 5585 5584 5583 5583 5584 5584 5583 5584 5584 5585 5586 5586 5586 5587 5587 5588 5588 5589 5590 5591 5592 5592 5592 5592 5594 5595 5597 5598 5597 5597 5598 5599 5599 5599 5600 5601 5602 5603 5604 5605 5605 5606 5607 5608 5609 5609 5610 5610 5611 5612 5613 5614 5614 5615 5615
5575 5575 5575 5574 5574 5574 5574 5574 5575 5575 5575 5575 5575 5575 5576 5576 5575 5574 5573 5572 5573 5574 5573 5573 5574 5575 5575 5576 5576 5577 5577 5577 5577 5577 5577 5578 5577 5577 5577 5578 5578 5578 5579 5579 5579 5580 5581 5581 5582 5583 5583 5584 5585 5585 5585 5587 5588 5589 5590 5589 5590 5591 5591 5591 5592 5592 5593 5594 5595 5596 5597 5597 5598 5599 5599 5600 5601 5602 5602 5603 5604 5606 5607 5607 5607 5608
5570 5569 5569 5568 5568 5568 5568 5568 5568 5569 5569 5569 5569 5568 5569 5569 5568 5567 5566 5566 5567 5567 5567 5567 5567 5568 5568 5569 5569 5570 5570 5570 5570 5570 5570 5571 5571 5571 5571 5571 5572 5572 5572 5572 5573 5573 5574 5574 5575 5576 5576 5577 5577 5578 5578 5579 5581 5582 5582 5582 5583 5583 5583 5584 5585 5585 5585 5587 5588 5589 5589 5589 5590 5590 5591 5592 5593 5594 5595 5596 5597 5598 5599 5600 5600 5601
5564 5563 5563 5563 5562 5562 5561 5562 5562 5563 5563 5563 5562 5561 5561 5561 5561 5561 5561 5561 5561 5561 5561 5560 5560 5561 5561 5562 5562 5563 5563 5563 5563 5564 5564 5565 5565 5565 5565 5565 5566 5566 5566 5566 5566 5566 5567 5567 5568 5569 5569 5569 5570 5570 5571 5572 5573 5574 5574 5575 5575 5575 5576 5576 5577 5577 5578 5579 5580 5581 5581 5581 5582 5583 5584 5585 5586 5587 5588 5588 5589 5590 5591 5592 5593 5595
5558 5558 5558 5557 5557 5557 5556 5556 5556 5556 5557 5556 5555 5554 5554 5554 5554 5554 5555 5555 5554 5554 5554 5554 5554 5554 5554 5555 5556 5556 5556 5557 5557 5557 5557 5558 5558 5559 5559 5559 5559 5559 5559 5559 5560 5560 5560 5561 5561 5562 5562 5562 5562 5562 5563 5564 5565 5566 5566 5567 5568 5568 5568 5569 5569 5570 5571 5572 5572 5573 5573 5574 5574 5575 5576 5577 5578 5579 5580 5581 5582 5583 5584 5585 5586 5588
5552 5552 5552 5553 5552 5552 5551 5551 5550 5550 5550 5549 5548 5547 5547 5547 5547 5548 5548 5548 5547 5547 5547 5547 5547 5547 5547 5548 5549 5549 5550 5550 5550 5550 5550 5551 5551 5552 5552 5552 5552 5552 5552 5553 5553 5553 5553 5554 5554 5555 5555 5555 5555 5555 5555 5556 5557 5558 5559 5559 5560 5560 5561 5561 5562 5563 5563 5564 5564 5565 5566 5566 5566 5567 5568 5568 5570 5571 5572 5573 5575 5576 5577 5578 5579 5581
5546 5546 5547 5547 5547 5547 5546 5546 5545 5544 5543 5542 5541 5541 5541 5541 5541 5541 5541 5541 5541 5540 5540 5540 5541 5540 5540 5540 5541 5541 5542 5542 5542 5543 5543 5543 5544 5544 5544 5544 5545 5545 5545 5546 5546 5546 5546 5547 5547 5547 5548 5548 5547 5547 5548 5549 5550 5551 5552 5552 5552 5552 5553 5553 5555 5555 5555 5555 5556 5557 5557 5557 5558 5558 5559 5560 5561 5563 5564 5566 5567 5569 5570 5571 5573 5574
5541 5540 5540 5541 5540 5540 5540 5541 5540 5539 5537 5536 5535 5535 5535 5534 5534 5534 5534 5533 5533 5533 5534 5534 5534 5534 5533 5532 5532 5533 5533 5533 5534 5534 5535 5536 5536 5536 5536 5536 5536 5537 5537 5538 5538 5538 5539 5539 5540 5540 5540 5540 5540 5540 5541 5542 5542 5543 5544 5545 5545 5545 5545 5546 5547 5546 5546 5546 5547 5548 5548 5548 5549 5550 5550 5552 5553 5555 5557 5559 5561 5562 5564 5566 5567 5568
5534 5535 5534 5534 5533 5533 5534 5534 5534 5533 5531 5530 5529 5529 5528 5527 5527 5527 5526 5526 5526 5525 5526 5526 5526 5526 5525 5525 5524 5525 5525 5525 5525 5526 5527 5527 5528 5528 5528 5528 5528 5528 5528 5529 5529 5530 5530 5531 5532 5532 5532 5532 5532 5532 5533 5534 5535 5536 5537 5537 5537 5537 5538 5538 5538 5538 5538 5538 5538 5539 5539 5540 5541 5542 5543 5545 5547 5549 5551 5554 5556 5558 5559 5561 5562 5564
5529 5529 5528 5527 5526 5527 5527 5528 5526 5525 5524 5523 5522 5521 5520 5520 5519 5519 5518 5518 5518 5518 5517 5517 5517 5517 5516 5516 5516 5517 5518 5518 5517 5517 5518 5518 5518 5519 5519 5520 5520 5520 5520 5520 5521 5521 5522 5523 5523 5523 5524 5524 5524 5525 5526 5527 5528 5529 5529 5529 5529 5529 5530 5530 5530 5530 5530 5530 5531 5531 5533 5534 5535 5537 5539 5541 5543 5545 5547 5550 5552 5554 5556 5557 5559 5560
5523 5523 5521 5521 5521 5521 5521 5520 5518 5517 5518 5517 5515 5513 5513 5513 5512 5512 5511 5510 5510 5510 5509 5509 5509 5508 5508 5509 5508 5508 5509 5509 5509 5508 5509 5510 5510 5510 5511 5511 5511 5511 5511 5511 5512 5512 5513 5514 5514 5514 5515 5516 5516 5517 5519 5520 5521 5522 5522 5522 5522 5523 5523 5524 5524 5523 5524 5524 5525 5526 5528 5529 5531 5532 5534 5536 5538 5541 5543 5546 5548 5551 5553 5554 5556 5558
5517 5516 5514 5514 5514 5514 5514 5512 5510 5510 5510 5510 5508 5506 5505 5505 5505 5504 5503 5503 5502 5502 5501 5501 5501 5501 5501 5500 5500 5499 5500 5500 5500 5500 5500 5501 5502 5502 5502 5502 5502 5502 5502 5502 5503 5503 5504 5505 5505 5506 5507 5508 5508 5510 5511 5512 5514 5515 5516 5516 5517 5518 5519 5519 5519 5518 5519 5520 5521 5522 5523 5525 5526 5528 5530 5533 5536 5538 5540 5543 5545 5548 5550 5551 5553 5554
5510 5509 5507 5507 5506 5506 5506 5505 5503 5502 5502 5502 5501 5499 5498 5497 5496 5496 5495 5495 5495 5494 5493 5493 5493 5494 5493 5493 5492 5491 5491 5493 5493 5492 5493 5494 5494 5493 5494 5494 5494 5495 5495 5495 5495 5496 5496 5497 5498 5499 5500 5501 5502 5504 5505 5507 5509 5511 5512 5512 5514 5515 5515 5515 5514 5514 5515 5516 5517 5519 5520 5521 5522 5524 5527 5531 5533 5536 5538 5540 5543 5545 5546 5548 5549 5551